This is the latest recevied weather packets stored in our database for station/object NK7E-1. If no packets are shown the sender has not sent any weather packets the latest 10 day(s).
| Time | Temp. | Humidity | Pressure | Rain* | Wind** | Luminosity | Snow |
|---|---|---|---|---|---|---|---|
| 1788136201 | 96° F | 30% | 758.9 mmHg | 0 in | - | - | - |
| 1788135601 | 97° F | 29% | 759.1 mmHg | 0 in | - | - | - |
| 1788135001 | 97° F | 29% | 759.1 mmHg | 0 in | - | - | - |
| 1788134401 | 97° F | 29% | 759.1 mmHg | 0 in | - | - | - |
| 1788133801 | 96° F | 29% | 759 mmHg | 0 in | - | - | - |
| 1788133200 | 96° F | 31% | 759 mmHg | 0 in | - | - | - |
| 1788132600 | 95° F | 32% | 759 mmHg | 0 in | - | - | - |
| 1788132001 | 95° F | 32% | 759.2 mmHg | 0 in | - | - | - |
| 1788131401 | 94° F | 35% | 759.3 mmHg | 0 in | - | - | - |
| 1788130804 | 94° F | 37% | 759.4 mmHg | 0 in | - | - | - |
| 1788130202 | 97° F | 31% | 759.5 mmHg | 0 in | - | - | - |
| 1788129602 | 97° F | 30% | 759.6 mmHg | 0 in | - | - | - |
| 1788129002 | 98° F | 29% | 759.7 mmHg | 0 in | - | - | - |
| 1788128402 | 99° F | 28% | 759.9 mmHg | 0 in | - | - | - |
| 1788127802 | 98° F | 29% | 760 mmHg | 0 in | - | - | - |
| 1788127203 | 98° F | 29% | 760.1 mmHg | 0 in | - | - | - |
| 1788126600 | 97° F | 30% | 760.3 mmHg | 0 in | - | - | - |
| 1788126001 | 97° F | 30% | 760.4 mmHg | 0 in | - | - | - |
| 1788125401 | 98° F | 30% | 760.4 mmHg | 0 in | - | - | - |
| 1788124800 | 98° F | 29% | 760.6 mmHg | 0 in | - | - | - |
| 1788124201 | 98° F | 30% | 760.6 mmHg | 0 in | - | - | - |
| 1788123603 | 96° F | 31% | 760.9 mmHg | 0 in | - | - | - |
| 1788123002 | 97° F | 31% | 761 mmHg | 0 in | - | - | - |
| 1788122401 | 97° F | 31% | 761.2 mmHg | 0 in | - | - | - |
| 1788121801 | 97° F | 31% | 761.3 mmHg | 0 in | - | - | - |
* Rain latest hour (hover to see other rain measurements)
** Current wind speed in m/s (hover to see current wind gust speed)